Simultaneous Nadir Overpasses (SNOs) Predictions

Prediction of SNOs between GOES-16 and NPP Satellite Orbit:

Table of predicted SNOs for the next 14.0 days since TLE Epoch: 6/16/2017
Index Date Time (GOES-16) GOES-16 Lat,Lon NPP Lat,Lon Distance(km) Time Diff (sec)
1 06/17/2017 07:41:44 -0.00, -89.52 0.92, -93.68 473.94 80
2 06/18/2017 07:20:19 -0.01, -89.53 -0.11, -89.16 43.66 80
3 06/20/2017 19:23:31 0.01, -89.55 -0.05, -89.93 42.35 80
4 06/21/2017 19:07:26 0.01, -89.56 0.93, -85.39 475.41 80
5 06/23/2017 07:29:14 -0.02, -89.59 0.19, -90.67 122.27 80
6 06/24/2017 07:07:49 -0.02, -89.60 -0.78, -86.13 395.38 80
7 06/25/2017 19:29:45 0.03, -89.61 -0.40, -91.43 208.05 80
8 06/26/2017 19:13:40 0.03, -89.62 0.63, -86.90 310.06 80
9 06/28/2017 07:35:28 -0.03, -89.66 0.54, -92.17 286.49 80
10 06/29/2017 07:14:03 -0.03, -89.67 -0.49, -87.64 231.94 80




NCC Satellite Simultaneous Nadir Overpasses (SNOs) Prediction Service
